Elkins, WV

8:53 PM EST on December 13, 2017 (GMT -0500)
Elkins-Randolph County

Weather History for KEKN - March, 2012

Change the Weather History Date:

Thursday, March 22, 2012

  Actual Average Record
Temperature  
Mean Temperature 65 °F 42 °F  
Max Temperature 82 °F 54 °F 83 °F (1907)
Min Temperature 48 °F 30 °F 6 °F (1986)
Degree Days  
Heating Degree Days 0 23  
Month to date heating degree days 339 586  
Since 1 July heating degree days 4078 4907  
Cooling Degree Days 0 0  
Month to date cooling degree days 0 0  
Year to date cooling degree days 0 0  
Growing Degree Days 14 (Base 50)    
Moisture  
Dew Point 48 °F    
Average Humidity 63    
Maximum Humidity 100    
Minimum Humidity 26    
Precipitation  
Precipitation 0.00 in 0.12 in 1.28 in (1916)
Month to date precipitation 2.43 2.76  
Year to date precipitation 7.84 9.09  
Snow  
Snow 0.00 in - - ()
Month to date snowfall 2.1  
Since 1 September snowfall 30.4  
Snow Depth 0.00 in    
Sea Level Pressure  
Sea Level Pressure 30.19 in    
Wind  
Wind Speed 2 mph (WNW)    
Max Wind Speed 13 mph    
Max Gust Speed 17 mph    
Visibility 8 miles    
Events      
T = Trace of Precipitation, MM = Missing Value Source: NWS Daily Summary

Daily Weather History Graph

Daily Weather History Graph

Search for Another Location

Airport or City:

Trip Planner

Search our weather history database for the weather conditions in past years. The results will help you decide how hot, cold, wet, or windy it might be!

Date:

Astronomy

Mar. 22, 2012 Rise Set
Actual Time 7:19 AM EDT 7:33 PM EDT
Civil Twilight 6:52 AM EDT 8:00 PM EDT
Nautical Twilight 6:21 AM EDT 8:31 PM EDT
Astronomical Twilight 5:49 AM EDT 9:03 PM EDT
Moon 6:58 AM EDT (3/22) 7:56 PM EDT (3/22)
Length of Visible Light 13h 08m
Length of Day
12h 14m
New Moon, 0% of the Moon is Illuminated
Mar 22
New Moon
Mar 30
First Quarter
Apr 6
Full
Apr 13
Last Quarter
Apr 21
New

Hourly Weather History & Observations

Time (EDT) Temp. Dew Point Humidity Pressure Visibility Wind Dir Wind Speed Gust Speed Precip Events Conditions
12:51 AM 52.0 °F 48.9 °F 89% 30.23 in 8.0 mi Calm Calm - N/A   Clear
1:51 AM 51.1 °F 48.9 °F 92% 30.22 in 7.0 mi Calm Calm - N/A   Clear
2:51 AM 50.0 °F 48.9 °F 96% 30.22 in 5.0 mi Calm Calm - N/A   Scattered Clouds
3:51 AM 50.0 °F 48.9 °F 96% 30.21 in 5.0 mi Calm Calm - N/A   Clear
4:47 AM 48.2 °F 48.2 °F 100% 30.22 in 2.5 mi Calm Calm - N/A   Scattered Clouds
4:51 AM 48.9 °F 48.0 °F 97% 30.22 in 3.0 mi Calm Calm - N/A   Mostly Cloudy
5:51 AM 50.0 °F 48.9 °F 96% 30.23 in 5.0 mi Calm Calm - N/A   Mostly Cloudy
6:51 AM 48.9 °F 48.0 °F 97% 30.25 in 5.0 mi Calm Calm - N/A   Mostly Cloudy
7:51 AM 48.9 °F 46.9 °F 93% 30.26 in 4.0 mi Calm Calm - N/A   Partly Cloudy
8:51 AM 55.9 °F 53.1 °F 90% 30.26 in 7.0 mi Calm Calm - N/A   Scattered Clouds
9:51 AM 63.0 °F 55.0 °F 75% 30.25 in 10.0 mi Calm Calm - N/A   Clear
10:51 AM 72.0 °F 53.1 °F 51% 30.23 in 10.0 mi Calm Calm - N/A   Clear
11:51 AM 75.0 °F 52.0 °F 44% 30.21 in 10.0 mi SSE 4.6 mph - N/A   Clear
12:51 PM 77.0 °F 51.1 °F 40% 30.19 in 10.0 mi SE 4.6 mph - N/A   Clear
1:51 PM 80.1 °F 44.1 °F 28% 30.16 in 10.0 mi WNW 8.1 mph - N/A   Partly Cloudy
2:51 PM 79.0 °F 43.0 °F 28% 30.14 in 10.0 mi NW 10.4 mph - N/A   Clear
3:51 PM 80.1 °F 42.1 °F 26% 30.12 in 10.0 mi NW 4.6 mph - N/A   Clear
4:51 PM 79.0 °F 43.0 °F 28% 30.12 in 10.0 mi Variable 6.9 mph - N/A   Scattered Clouds
5:51 PM 80.1 °F 43.0 °F 27% 30.10 in 10.0 mi NW 9.2 mph - N/A   Clear
6:51 PM 77.0 °F 44.1 °F 31% 30.12 in 10.0 mi WNW 4.6 mph - N/A   Clear
7:51 PM 66.9 °F 46.0 °F 47% 30.14 in 10.0 mi Calm Calm - N/A   Clear
8:51 PM 61.0 °F 46.9 °F 60% 30.15 in 10.0 mi Calm Calm - N/A   Clear
9:51 PM 57.0 °F 46.9 °F 69% 30.16 in 10.0 mi SSE 3.5 mph - N/A   Clear
10:51 PM 54.0 °F 48.0 °F 80% 30.16 in 10.0 mi Calm Calm - N/A   Clear
11:51 PM 52.0 °F 46.9 °F 83% 30.15 in 10.0 mi Calm Calm - N/A   Clear